Date String (YYYY-MM-DD hh:mm:ss) UTC,Instrument flags,absolute air pressure of the measurement (hPa),sample flow rate (lpm),inlet stack bypass flow (lpm),air temperature of the measurement (°C),ambient temperature measured by the external sensor (°C),aerosol sample conditioner tube jacket temperature (°C),OPC LED temperature (°C),internal box temperature (°C),relative humidity of the measurement (%),span deviation,mass concentration of particles derived from Lorenz-Mie calculation of OPC scattering (μg/m³),mass concentration of particles derived from Lorenz-Mie calculation of OPC scattering (μg/m³),mass concentration of particles derived from Lorenz-Mie calculation of OPC scattering (μg/m³)
DateTimeUTC,F1_M11,P_M11,Q1_M11,Q2_M11,T1_M11,T2_M11,T3_M11,T4_M11,T5_M11,U1_M11,ZSPAN_M11,X0_M11,X2_M11,X1_M11
2023-08-25 08:00:00,SystemResetWarning,0834.2,5.00,000.00,027.9,025.6,000.0,036.3,029.5,33.7,0000.2,0011.33,0005.01,0004.28
2023-08-25 08:01:00,SystemResetWarning,0834.2,5.00,000.00,027.9,025.9,000.0,036.4,029.5,33.5,0000.0,0011.07,0005.05,0004.28
2023-08-25 08:02:00,SystemResetWarning,0834.2,5.00,000.00,027.9,026.2,000.0,036.4,029.6,33.3,-000.1,0011.12,0005.07,0004.27
2023-08-25 08:03:00,SystemResetWarning,0834.2,5.00,000.00,028.0,026.4,000.0,036.4,029.7,33.2,-000.1,0011.10,0005.08,0004.28
2023-08-25 08:04:00,SystemResetWarning,0834.2,5.00,000.00,028.0,026.6,000.0,036.4,029.7,33.1,-000.0,0010.73,0005.06,0004.28
2023-08-25 08:05:00,SystemResetWarning,0834.2,5.00,000.00,028.1,026.8,000.0,036.4,029.8,33.0,0000.1,0010.30,0005.00,0004.28
2023-08-25 08:06:00,SystemResetWarning,0834.4,5.00,000.00,028.1,026.9,000.0,036.5,029.9,32.8,0000.1,0010.47,0005.03,0004.28
2023-08-25 08:07:00,SystemResetWarning,0834.3,5.00,000.00,028.2,027.0,000.0,036.5,029.9,32.6,0001.1,0010.32,0005.07,0004.28
2023-08-25 08:08:00,SystemResetWarning,0834.2,4.98,000.00,028.2,025.9,000.0,036.4,029.7,32.4,0001.1,0010.16,0005.07,0004.30
2023-08-25 08:09:00,SystemResetWarning,0834.2,5.02,000.00,028.1,024.7,000.0,036.3,029.5,32.3,0000.9,0010.15,0005.04,0004.30
2023-08-25 08:10:00,SystemResetWarning,0834.1,5.01,000.00,028.0,024.5,000.0,036.3,029.3,32.6,0000.2,0010.07,0005.05,0004.30
2023-08-25 08:11:00,SystemResetWarning,0834.2,5.00,000.00,027.9,024.8,000.0,036.3,029.3,32.9,0000.2,0009.66,0005.06,0004.31
2023-08-25 08:12:00,SystemResetWarning,0834.2,5.00,000.00,027.9,025.1,000.0,036.3,029.4,33.3,0000.4,0009.93,0005.04,0004.31
2023-08-25 08:13:00,SystemResetWarning,0834.4,5.00,000.00,027.9,025.5,000.0,036.4,029.5,32.9,-000.1,0010.01,0005.00,0004.29
2023-08-25 08:14:00,SystemResetWarning,0834.6,5.00,000.00,027.9,025.8,000.0,036.4,029.6,33.0,-000.5,0009.90,0004.97,0004.29
2023-08-25 08:15:00,SystemResetWarning,0834.6,5.01,000.00,028.0,026.1,000.0,036.4,029.6,33.0,-001.0,0009.87,0004.96,0004.29
2023-08-25 08:16:00,SystemResetWarning,0834.6,5.00,000.00,028.0,026.4,000.0,036.4,029.7,32.8,-000.6,0009.83,0004.98,0004.30
2023-08-25 08:17:00,SystemResetWarning,0834.3,5.00,000.00,028.0,026.6,000.0,036.4,029.8,32.6,-000.2,0009.70,0004.97,0004.31
2023-08-25 08:18:00,SystemResetWarning,0834.5,5.00,000.00,028.1,026.8,000.0,036.5,029.8,32.5,-000.4,0009.59,0004.93,0004.30
2023-08-25 08:19:00,SystemResetWarning,0834.6,5.00,000.00,028.1,026.9,000.0,036.5,029.9,32.3,-000.3,0009.59,0004.94,0004.29
2023-08-25 08:20:00,SystemResetWarning,0834.3,4.99,000.00,028.2,026.9,000.0,036.5,029.9,32.0,-000.2,0009.62,0004.98,0004.30
2023-08-25 08:21:00,SystemResetWarning,0834.5,4.99,000.00,028.2,025.5,000.0,036.4,029.6,32.2,0000.3,0009.67,0004.99,0004.30
2023-08-25 08:22:00,SystemResetWarning,0834.5,5.01,000.00,028.0,024.0,000.0,036.3,029.3,31.7,0000.8,0009.81,0004.98,0004.30
2023-08-25 08:23:00,SystemResetWarning,0834.4,5.00,000.00,027.9,023.6,000.0,036.2,029.1,31.6,0000.3,0009.66,0004.98,0004.29
2023-08-25 08:24:00,SystemResetWarning,0834.3,5.01,000.00,027.8,023.8,000.0,036.2,029.1,31.8,0000.0,0009.60,0004.98,0004.30
2023-08-25 08:25:00,SystemResetWarning,0834.3,5.01,000.00,027.8,024.2,000.0,036.2,029.1,32.0,0000.0,0009.69,0005.00,0004.30
2023-08-25 08:26:00,SystemResetWarning,0834.4,5.00,000.00,027.8,024.7,000.0,036.3,029.2,31.8,0000.0,0009.64,0005.02,0004.30
2023-08-25 08:27:00,SystemResetWarning,0834.4,5.00,000.00,027.8,025.1,000.0,036.3,029.3,32.5,0000.0,0009.40,0005.03,0004.30
2023-08-25 08:28:00,SystemResetWarning,0834.4,5.00,000.00,027.8,025.5,000.0,036.3,029.4,32.5,0000.0,0009.29,0005.01,0004.28
2023-08-25 08:29:00,SystemResetWarning,0834.4,5.00,000.00,027.8,025.8,000.0,036.3,029.5,32.4,0000.0,0009.56,0005.00,0004.28
2023-08-25 08:30:00,SystemResetWarning,0834.5,5.00,000.00,027.8,026.1,000.0,036.3,029.5,32.4,0000.0,0010.37,0004.99,0004.28
2023-08-25 08:31:00,SystemResetWarning,0834.5,5.00,000.00,027.9,026.3,000.0,036.3,029.6,32.5,0000.0,0010.42,0004.99,0004.27
2023-08-25 08:32:00,SystemResetWarning,0834.5,5.00,000.00,027.9,026.5,000.0,036.3,029.7,32.6,0000.0,0010.42,0004.98,0004.27
2023-08-25 08:33:00,SystemResetWarning,0834.5,5.00,000.00,028.0,026.7,000.0,036.4,029.7,32.7,0000.0,0010.11,0004.99,0004.27
2023-08-25 08:34:00,SystemResetWarning,0834.5,5.00,000.00,028.0,026.8,000.0,036.4,029.8,32.6,0000.0,0009.90,0004.99,0004.28
2023-08-25 08:35:00,SystemResetWarning,0834.5,5.00,000.00,028.1,027.0,000.0,036.4,029.8,32.3,0000.0,0009.83,0004.99,0004.28
2023-08-25 08:36:00,SystemResetWarning,0834.5,5.01,000.00,028.1,027.1,000.0,036.4,029.9,32.2,0000.0,0009.70,0004.95,0004.28
2023-08-25 08:37:00,SystemResetWarning,0834.5,4.98,000.00,028.2,027.1,000.0,036.5,029.9,32.0,0000.1,0009.70,0004.96,0004.27
2023-08-25 08:38:00,SystemResetWarning,0834.5,5.00,000.00,028.2,025.8,000.0,036.4,029.7,31.8,0000.0,0009.70,0004.98,0004.28
2023-08-25 08:39:00,SystemResetWarning,0834.5,5.00,000.00,028.1,024.7,000.0,036.3,029.5,31.8,-000.0,0010.67,0005.01,0004.28
2023-08-25 08:40:00,SystemResetWarning,0834.5,5.01,000.00,028.0,024.6,000.0,036.2,029.4,31.8,-000.2,0010.51,0005.01,0004.28
2023-08-25 08:41:00,SystemResetWarning,0834.5,5.01,000.00,027.9,024.8,000.0,036.3,029.4,31.9,-000.3,0009.73,0005.00,0004.27
2023-08-25 08:42:00,SystemResetWarning,0834.5,4.99,000.00,027.9,025.2,000.0,036.3,029.4,32.0,-000.2,0009.68,0005.00,0004.27
2023-08-25 08:43:00,SystemResetWarning,0834.5,5.00,000.00,027.9,025.6,000.0,036.4,029.5,32.0,0000.0,0009.66,0004.99,0004.28
2023-08-25 08:44:00,SystemResetWarning,0834.5,5.00,000.00,028.0,025.9,000.0,036.4,029.6,32.0,0000.2,0009.66,0004.97,0004.28
2023-08-25 08:45:00,SystemResetWarning,0834.5,5.00,000.00,028.0,026.2,000.0,036.4,029.7,32.0,0000.2,0009.66,0004.98,0004.27
2023-08-25 08:46:00,SystemResetWarning,0834.5,5.00,000.00,028.0,026.4,000.0,036.4,029.7,32.0,0000.1,0009.65,0004.99,0004.28
2023-08-25 08:47:00,SystemResetWarning,0834.4,5.00,000.00,028.1,026.6,000.0,036.4,029.8,32.0,-000.1,0009.58,0004.96,0004.27
2023-08-25 08:48:00,SystemResetWarning,0834.4,4.99,000.00,028.1,026.8,000.0,036.5,029.8,32.0,-000.0,0009.61,0004.98,0004.28
2023-08-25 08:49:00,SystemResetWarning,0834.4,5.00,000.00,028.2,026.9,000.0,036.5,029.9,32.0,-000.1,0009.52,0004.96,0004.28
2023-08-25 08:50:00,SystemResetWarning,0834.4,4.99,000.00,028.2,027.1,000.0,036.5,030.0,31.9,-000.3,0008.55,0004.93,0004.27
2023-08-25 08:51:00,SystemResetWarning,0834.3,5.00,000.00,028.2,026.3,000.0,036.5,029.9,31.9,0000.1,0008.70,0004.94,0004.28
2023-08-25 08:52:00,SystemResetWarning,0834.4,5.00,000.00,028.1,024.9,000.0,036.3,029.5,32.2,0000.4,0009.12,0004.95,0004.29
2023-08-25 08:53:00,SystemResetWarning,0834.4,5.00,000.00,028.1,024.6,000.0,036.3,029.4,32.5,0000.0,0009.06,0004.94,0004.29
2023-08-25 08:54:00,SystemResetWarning,0834.3,5.01,000.00,028.0,024.8,000.0,036.3,029.4,32.9,0000.2,0009.08,0004.96,0004.29
2023-08-25 08:55:00,SystemResetWarning,0834.4,5.00,000.00,028.0,025.1,000.0,036.4,029.4,32.9,0000.4,0009.00,0004.94,0004.29
2023-08-25 08:56:00,SystemResetWarning,0834.4,5.00,000.00,028.0,025.5,000.0,036.4,029.5,32.3,0000.5,0008.83,0004.90,0004.28
2023-08-25 08:57:00,SystemResetWarning,0834.3,5.00,000.00,028.0,025.8,000.0,036.4,029.6,32.6,0000.4,0008.82,0004.89,0004.28
2023-08-25 08:58:00,SystemResetWarning,0834.5,5.00,000.00,028.0,026.1,000.0,036.4,029.7,33.4,0001.1,0009.00,0004.95,0004.28
2023-08-25 08:59:00,SystemResetWarning,0834.4,4.99,000.00,028.1,026.4,000.0,036.4,029.7,33.2,0000.2,0009.47,0004.96,0004.28
